CYMT

Chapais Airport

ICAO Code CYMT
IATA Code YMT
Name Chapais Airport
Location Chibougamau, Quebec, CA
Elevation 1270 Feet / 387.1 Meters
Latitude 49.77194444
Longitude -74.52805556
METAR CYMT 260400Z AUTO 01004KT 9SM CLR M00/M01 A3013 RMK SLP225
Extra information Display Charts and CFS
Display NOTAMS
Runway Length Width Surface Elevation
04 6495 ft 150 ft ASP 1262 ft
22 6495 ft 150 ft ASP 1270 ft